Flag for U.S.A. Weather past 2 weeks in Paradise, Nevada, U.S.A.

Now
66 °F

Passing clouds.


Feels Like: 66 °F
Forecast: 43 / 67 °F
Wind: 6 mph from West

Location: McCarran International Airport

Current Time: Jan 25, 2015 at 6:35:39 PM

Latest Report: Jan 25, 2015 at 5:56 PM


Visibility: 10 mi

Pressure: 30.09 "Hg

Humidity: 28%

Dew point: 32 °F

Location of ParadiseLocation

Historic Weather in Paradise — Graph

°F

Paradise temperature yesterday

Maximum temperature yesterday: 67 °F (at 2:56 PM)
Minimum temperature yesterday: 48 °F (at 12:56 AM)
Average temperature yesterday: 56 °F

Past Weeks' High & Low Weather Summary

 TemperatureHumidityPressure
High73 °F (Jan 25, 2:56 PM)93% (Jan 11, 11:56 PM)30.39 "Hg (Jan 11, 11:56 PM)
Low39 °F (Jan 23, 5:56 AM)9% (Jan 22, 3:56 PM)29.92 "Hg (Jan 10, 4:56 PM)
Average53 °F43%30.17 "Hg
* Reported Jan 10 4:56 PM — Jan 25 4:56 PM, Paradise, Weather by CustomWeather, © 2014

Note: Actual official high and low records may vary slightly from our data, if they occured in-between our weather recording intervals... More about our weather records

Advertising

Paradise weather history for previous 24 hours

 ConditionsComfort  
Time TempWeatherWind HumidityBarometerVisibility
4:56 PM
Jan 25
70 °FPassing clouds.3 mph23%30.09 "Hg10 mi
3:56 PM73 °FPassing clouds.3 mph21%30.09 "Hg10 mi
2:56 PM73 °FPassing clouds.7 mph21%30.09 "Hg10 mi
1:56 PM71 °FSunny.3 mph23%30.11 "Hg10 mi
12:56 PM70 °FSunny.3 mph23%30.14 "Hg10 mi
11:56 AM67 °FSunny.5 mph26%30.17 "Hg10 mi
10:56 AM64 °FSunny.No wind28%30.22 "Hg10 mi
9:56 AM61 °FSunny.No wind29%30.24 "Hg10 mi
8:56 AM57 °FSunny.5 mph32%30.24 "Hg10 mi
7:56 AM50 °FSunny.8 mph39%30.24 "Hg10 mi
6:56 AM46 °FSunny.7 mph44%30.24 "Hg10 mi
5:56 AM45 °FClear.6 mph44%30.22 "Hg10 mi
4:56 AM47 °FClear.10 mph39%30.20 "Hg10 mi
3:56 AM47 °FClear.9 mph39%30.20 "Hg10 mi
2:56 AM48 °FClear.8 mph37%30.19 "Hg10 mi
1:56 AM50 °FClear.5 mph33%30.20 "Hg10 mi
12:56 AM50 °FClear.10 mph33%30.19 "Hg10 mi
11:56 PM
Jan 24
52 °FClear.8 mph31%30.20 "Hg10 mi
10:56 PM52 °FClear.6 mph31%30.19 "Hg10 mi
9:56 PM54 °FClear.7 mph29%30.19 "Hg10 mi
8:56 PM54 °FClear.7 mph29%30.19 "Hg10 mi
7:56 PM56 °FClear.7 mph28%30.19 "Hg10 mi
6:56 PM59 °FClear.9 mph23%30.18 "Hg10 mi
Weather by CustomWeather, © 2014

See weather overviewHow to use our weather pages